Latest Coastal Weather Observations for Creal Reef

IDQ60701

Issued at 4:22 pm EST Sunday 26 June 2016 (issued every 10 minutes, with the page automatically refreshed every 10 minutes)

About coastal observations | Map of coastal stations | Coastal observations for QLD | Marine services | Other Formats
Station Details ID: 200736 Name: CREAL REEF Lat: -20.53 Lon: 150.38 Height: 1.7 m
Data from the previous 72 hours. | See also: Recent months for locations in Queensland
Date/Time
EST
Temp
°C
Wind Pressure Rain since
9am
mm
Weather Cloud Vis
km
Sea
Height
m
Swell
Dir  Spd
kts
Gust
kts
hPa Trend Height
m
Period
s
Dir
26/04:20pm 23.0 SE 11 11 - - - - - - - - - -
26/04:00pm 22.8 SE 11 15 - - - - - - - - - -
26/03:30pm 22.7 ESE 11 12 - - - - - - - - - -
26/03:20pm 22.9 ESE 11 - - - - - - - - - - -
26/03:00pm 22.7 ESE 11 13 - - - - - - - - - -
26/02:30pm 22.5 ESE 12 15 - - - - - - - - - -
26/02:20pm 22.4 ESE 12 - - - - - - - - - - -
26/02:00pm 22.5 ESE 13 16 - - - - - - - - - -
26/01:30pm 22.7 ESE 13 16 - - - - - - - - - -
26/01:20pm 22.4 ESE 13 - - - - - - - - - - -
26/01:00pm 22.3 ESE 13 16 - - - - - - - - - -
26/12:30pm 22.4 SE 14 17 - - - - - - - - - -
26/12:20pm 22.4 SE 14 - - - - - - - - - - -
26/12:00pm 22.2 SE 14 17 - - - - - - - - - -
26/11:30am 22.1 SE 14 16 - - - - - - - - - -
26/11:20am 22.3 SE 14 - - - - - - - - - - -
26/11:00am 22.1 SE 13 16 - - - - - - - - - -
26/10:30am 22.2 SE 12 16 - - - - - - - - - -
26/10:20am 22.1 SE 12 - - - - - - - - - - -
26/10:00am 21.9 SSE 13 16 - - - - - - - - - -
26/09:30am 21.8 SE 12 14 - - - - - - - - - -
26/09:20am 21.7 SE 12 - - - - - - - - - - -
26/09:00am 21.7 SE 12 14 - - - - - - - - - -
26/08:30am 21.7 SE 12 15 - - - - - - - - - -
26/08:20am 21.5 SE 12 - - - - - - - - - - -
26/08:00am 21.7 SE 11 14 - - - - - - - - - -
26/07:30am 21.3 SE 12 14 - - - - - - - - - -
26/07:20am 21.5 SE 11 - - - - - - - - - - -
26/07:00am 21.2 SE 12 15 - - - - - - - - - -
26/06:30am 21.2 SE 12 15 - - - - - - - - - -
26/06:20am 21.1 SE 12 - - - - - - - - - - -
26/06:00am 21.2 SE 12 15 - - - - - - - - - -
26/05:30am 21.2 SE 13 16 - - - - - - - - - -
26/05:20am 21.1 SE 13 - - - - - - - - - - -
26/05:00am 21.2 ESE 13 16 - - - - - - - - - -
26/04:30am 21.2 ESE 13 17 - - - - - - - - - -
26/04:20am 21.1 ESE 13 - - - - - - - - - - -
26/04:00am 21.0 SE 13 17 - - - - - - - - - -
26/03:30am 21.2 ESE 14 17 - - - - - - - - - -
26/03:20am 21.2 SE 14 - - - - - - - - - - -
26/03:00am 21.0 SE 14 18 - - - - - - - - - -
26/02:30am 21.2 ESE 12 16 - - - - - - - - - -
26/02:20am 21.1 SE 13 - - - - - - - - - - -
26/02:00am 21.3 SE 12 14 - - - - - - - - - -
26/01:30am 21.1 ESE 13 15 - - - - - - - - - -
26/01:20am 21.5 SE 13 - - - - - - - - - - -
26/01:00am 21.4 SE 12 16 - - - - - - - - - -
26/12:30am 21.3 SE 12 15 - - - - - - - - - -
26/12:20am 21.3 SE 13 - - - - - - - - - - -
26/12:00am 21.3 SE 12 16 - - - - - - - - - -
 
Date/Time
EST
Temp
°C
Wind Pressure Rain since
9am
mm
Weather Cloud Vis
km
Sea
Height
m
Swell
Dir  Spd
kts
Gust
kts
hPa Trend Height
m
Period
s
Dir
25/11:30pm 21.4 SE 12 15 - - - - - - - - - -
25/11:20pm 21.2 SE 13 - - - - - - - - - - -
25/11:00pm 21.2 SE 13 16 - - - - - - - - - -
25/10:30pm 21.2 SE 13 16 - - - - - - - - - -
25/10:20pm 21.2 SE 13 - - - - - - - - - - -
25/10:00pm 21.4 SE 13 16 - - - - - - - - - -
25/09:30pm 21.4 SE 13 16 - - - - - - - - - -
25/09:20pm 21.1 SE 13 - - - - - - - - - - -
25/09:00pm 21.2 SE 14 16 - - - - - - - - - -
25/08:30pm 21.1 SSE 15 18 - - - - - - - - - -
25/08:20pm 21.0 SSE 14 - - - - - - - - - - -
25/08:00pm 21.2 SSE 15 18 - - - - - - - - - -
25/07:30pm 21.2 SSE 15 19 - - - - - - - - - -
25/07:20pm 21.2 SSE 15 - - - - - - - - - - -
25/07:00pm 21.2 SSE 16 20 - - - - - - - - - -
25/06:30pm 21.0 SSE 15 19 - - - - - - - - - -
25/06:20pm 21.1 SSE 15 - - - - - - - - - - -
25/06:00pm 21.2 SSE 14 18 - - - - - - - - - -
25/05:30pm 21.0 SSE 16 20 - - - - - - - - - -
25/05:20pm 21.0 SSE 17 - - - - - - - - - - -
25/05:00pm 21.1 SSE 16 20 - - - - - - - - - -
25/04:30pm 21.4 SSE 17 21 - - - - - - - - - -
25/04:20pm 21.1 SSE 17 - - - - - - - - - - -
25/04:00pm 21.1 SSE 16 21 - - - - - - - - - -
25/03:30pm 21.2 SSE 18 22 - - - - - - - - - -
25/03:20pm 21.0 SSE 18 - - - - - - - - - - -
25/03:00pm 20.9 SSE 18 23 - - - - - - - - - -
25/02:30pm 20.9 SSE 19 23 - - - - - - - - - -
25/02:20pm 20.7 SSE 21 - - - - - - - - - - -
25/02:00pm 21.0 SSE 21 25 - - - - - - - - - -
25/01:30pm 20.9 SSE 21 25 - - - - - - - - - -
25/01:20pm 21.1 S 20 - - - - - - - - - - -
25/01:00pm 21.0 SSE 20 25 - - - - - - - - - -
25/12:30pm 21.0 SSE 20 25 - - - - - - - - - -
25/12:20pm 21.1 S 22 - - - - - - - - - - -
25/12:00pm 21.2 SSE 22 27 - - - - - - - - - -
25/11:30am 21.5 SSE 21 25 - - - - - - - - - -
25/11:20am 21.6 SSE 21 - - - - - - - - - - -
25/11:00am 21.7 SSE 20 24 - - - - - - - - - -
25/10:30am 21.8 SSE 22 26 - - - - - - - - - -
25/10:20am 21.6 S 23 - - - - - - - - - - -
25/10:00am 22.1 S 23 27 - - - - - - - - - -
25/09:30am 22.2 S 22 26 - - - - - - - - - -
25/09:20am 22.0 S 22 - - - - - - - - - - -
25/09:00am 22.2 S 21 24 - - - - - - - - - -
25/08:30am 22.7 S 22 27 - - - - - - - - - -
25/08:20am 22.8 S 23 - - - - - - - - - - -
25/08:00am 22.9 S 22 25 - - - - - - - - - -
25/07:30am 23.0 S 22 25 - - - - - - - - - -
25/07:20am 22.8 S 22 - - - - - - - - - - -
25/07:00am 23.0 S 22 25 - - - - - - - - - -
25/06:30am 23.7 S 19 23 - - - - - - - - - -
25/06:20am 23.9 S 19 - - - - - - - - - - -
25/06:00am 23.9 SSW 20 22 - - - - - - - - - -
25/05:30am 24.4 SSW 18 20 - - - - - - - - - -
25/05:20am 24.6 SSW 16 - - - - - - - - - - -
25/05:00am 24.6 S 17 19 - - - - - - - - - -
25/04:30am 24.7 S 15 18 - - - - - - - - - -
25/04:20am 24.7 S 14 - - - - - - - - - - -
25/04:00am 24.5 SSW 12 14 - - - - - - - - - -
25/03:30am 24.7 S 12 13 - - - - - - - - - -
25/03:20am 24.7 S 12 - - - - - - - - - - -
25/03:00am 24.7 S 13 14 - - - - - - - - - -
25/02:30am 24.4 SSW 12 14 - - - - - - - - - -
25/02:20am 24.3 SSW 11 - - - - - - - - - - -
25/02:00am 24.1 SSW 9 10 - - - - - - - - - -
25/01:30am 24.3 SSW 8 8 - - - - - - - - - -
25/01:20am 24.4 SSW 7 - - - - - - - - - - -
25/01:00am 24.4 SW 6 6 - - - - - - - - - -
25/12:30am 24.3 SW 6 6 - - - - - - - - - -
25/12:20am 24.2 SW 6 - - - - - - - - - - -
25/12:00am 24.3 SW 7 8 - - - - - - - - - -
 
Date/Time
EST
Temp
°C
Wind Pressure Rain since
9am
mm
Weather Cloud Vis
km
Sea
Height
m
Swell
Dir  Spd
kts
Gust
kts
hPa Trend Height
m
Period
s
Dir
24/11:30pm 24.4 SW 7 7 - - - - - - - - - -
24/11:20pm 24.4 SW 6 - - - - - - - - - - -
24/11:00pm 24.3 SW 7 8 - - - - - - - - - -
24/10:30pm 24.6 SW 6 7 - - - - - - - - - -
24/10:20pm 24.6 SW 7 - - - - - - - - - - -
24/10:00pm 24.3 SW 6 7 - - - - - - - - - -
24/09:30pm 23.9 SW 5 7 - - - - - - - - - -
24/09:20pm 23.7 W 2 - - - - - - - - - - -
24/09:00pm 23.5 W 10 15 - - - - - - - - - -
24/08:30pm 23.9 SSW 8 11 - - - - - - - - - -
24/08:20pm 24.5 S 9 - - - - - - - - - - -
24/08:00pm 24.5 S 8 9 - - - - - - - - - -
24/07:30pm 24.5 CALM 0 0 - - - - - - - - - -
24/07:20pm 24.5 CALM 0 - - - - - - - - - - -
24/07:00pm 24.6 CALM 0 0 - - - - - - - - - -
24/06:30pm 24.6 CALM 0 0 - - - - - - - - - -
24/06:20pm 24.6 CALM 0 - - - - - - - - - - -
24/06:00pm 24.7 CALM 0 0 - - - - - - - - - -
24/05:30pm 24.9 CALM 0 0 - - - - - - - - - -
24/05:20pm 25.2 N 1 - - - - - - - - - - -
24/05:00pm 25.0 NNE 4 6 - - - - - - - - - -
24/04:30pm 25.1 N 5 6 - - - - - - - - - -
24/04:20pm 25.1 N 5 - - - - - - - - - - -
24/04:00pm 25.1 N 4 6 - - - - - - - - - -
24/03:30pm 25.2 N 3 5 - - - - - - - - - -
24/03:20pm 25.2 N 4 - - - - - - - - - - -
24/03:00pm 25.5 NW 4 5 - - - - - - - - - -
24/02:30pm 26.0 WNW 4 5 - - - - - - - - - -
24/02:20pm 25.5 WNW 4 - - - - - - - - - - -
24/02:00pm 25.6 W 6 7 - - - - - - - - - -
24/01:30pm 25.5 WSW 7 8 - - - - - - - - - -
24/01:20pm 25.5 WSW 6 - - - - - - - - - - -
24/01:00pm 25.4 WSW 8 9 - - - - - - - - - -
24/12:30pm 25.7 W 7 8 - - - - - - - - - -
24/12:20pm 25.7 W 7 - - - - - - - - - - -
24/12:00pm 25.8 W 6 7 - - - - - - - - - -
24/11:30am 25.7 W 8 8 - - - - - - - - - -
24/11:20am 25.7 W 7 - - - - - - - - - - -
24/11:00am 25.9 W 5 7 - - - - - - - - - -
24/10:30am 25.9 W 6 7 - - - - - - - - - -
24/10:20am 25.7 W 6 - - - - - - - - - - -
24/10:00am 25.7 W 6 8 - - - - - - - - - -
24/09:30am 25.4 NNW 5 6 - - - - - - - - - -
24/09:20am 25.4 NNW 5 - - - - - - - - - - -
24/09:00am 25.4 NNW 4 5 - - - - - - - - - -
24/08:30am 24.9 N 6 7 - - - - - - - - - -
24/08:20am 24.9 N 7 - - - - - - - - - - -
24/08:00am 24.9 NNE 6 7 - - - - - - - - - -
24/07:30am 24.9 NNE 8 9 - - - - - - - - - -
24/07:20am 24.9 NNE 8 - - - - - - - - - - -
24/07:00am 24.8 NNE 9 10 - - - - - - - - - -
24/06:30am 24.7 N 7 9 - - - - - - - - - -
24/06:20am 24.7 N 8 - - - - - - - - - - -
24/06:00am 24.7 N 8 9 - - - - - - - - - -
24/05:30am 24.7 N 7 8 - - - - - - - - - -
24/05:20am 24.7 N 7 - - - - - - - - - - -
24/05:00am 24.7 NNE 8 11 - - - - - - - - - -
24/04:30am 24.7 NNE 10 12 - - - - - - - - - -
24/04:20am 24.6 NNE 7 - - - - - - - - - - -
24/04:00am 24.6 NNE 6 7 - - - - - - - - - -
24/03:30am 24.7 NNE 5 6 - - - - - - - - - -
24/03:20am 24.7 NE 4 - - - - - - - - - - -
24/03:00am 24.7 NE 10 12 - - - - - - - - - -
24/02:30am 24.7 ENE 7 8 - - - - - - - - - -
24/02:20am 24.6 E 6 - - - - - - - - - - -
24/02:00am 24.6 E 5 6 - - - - - - - - - -
24/01:30am 24.7 E 5 5 - - - - - - - - - -
24/01:20am 24.7 E 5 - - - - - - - - - - -
24/01:00am 24.8 E 5 6 - - - - - - - - - -
24/12:30am 24.8 ENE 6 6 - - - - - - - - - -
24/12:20am 24.8 ENE 7 - - - - - - - - - - -
24/12:00am 24.7 ENE 7 8 - - - - - - - - - -
 
Date/Time
EST
Temp
°C
Wind Pressure Rain since
9am
mm
Weather Cloud Vis
km
Sea
Height
m
Swell
Dir  Spd
kts
Gust
kts
hPa Trend Height
m
Period
s
Dir
23/11:30pm 24.7 ENE 8 9 - - - - - - - - - -
23/11:20pm 24.7 ENE 8 - - - - - - - - - - -
23/11:00pm 24.7 ENE 9 10 - - - - - - - - - -
23/10:30pm 24.6 ENE 10 11 - - - - - - - - - -
23/10:20pm 24.6 ENE 10 - - - - - - - - - - -
23/10:00pm 24.6 ENE 11 13 - - - - - - - - - -
23/09:30pm 24.6 E 11 13 - - - - - - - - - -
23/09:20pm 24.4 E 12 - - - - - - - - - - -
23/09:00pm 24.5 ENE 12 13 - - - - - - - - - -
23/08:30pm 24.5 E 11 13 - - - - - - - - - -
23/08:20pm 24.4 E 11 - - - - - - - - - - -
23/08:00pm 24.3 E 11 13 - - - - - - - - - -
23/07:30pm 24.3 E 10 11 - - - - - - - - - -
23/07:20pm 24.1 E 10 - - - - - - - - - - -
23/07:00pm 24.3 E 11 13 - - - - - - - - - -
23/06:30pm 24.1 E 11 12 - - - - - - - - - -
23/06:20pm 24.1 E 10 - - - - - - - - - - -
23/06:00pm 24.3 E 10 11 - - - - - - - - - -
23/05:30pm 24.1 E 10 11 - - - - - - - - - -
23/05:20pm 24.2 E 10 - - - - - - - - - - -
23/05:00pm 24.3 E 10 11 - - - - - - - - - -
23/04:30pm 24.3 ESE 10 11 - - - - - - - - - -

Other Formats:

Comma delimited format used in spreadsheet applications
http://www.bom.gov.au/fwo/IDQ60701/IDQ60701.94371.axf

JavaScript Object Notation format (JSON) in row-major order
http://www.bom.gov.au/fwo/IDQ60701/IDQ60701.94371.json